Naples, Italy

1:38 AM CEST on July 26, 2016 (GMT +0200)
Capodichino Mil

Weather History for LIRN - December, 2012

Change the Weather History Date:

Friday, December 14, 2012

  Actual Average Record
Temperature  
Mean Temperature 52 °F -  
Max Temperature 59 °F 55 °F 64 °F (2014)
Min Temperature 44 °F 40 °F 30 °F (2007)
Degree Days  
Heating Degree Days 14    
Growing Degree Days 2 (Base 50)    
Moisture  
Dew Point 49 °F    
Average Humidity 86    
Maximum Humidity 100    
Minimum Humidity 58    
Precipitation  
Precipitation 0.00 in 0.15 in - ()
Sea Level Pressure  
Sea Level Pressure 30.12 in    
Wind  
Wind Speed 4 mph ()    
Max Wind Speed 9 mph    
Max Gust Speed 21 mph    
Visibility 5.1 miles    
Events Rain , Thunderstorm    
Averages and records for this station are not official NWS values.
T = Trace of Precipitation, MM = Missing Value Source: Averaged Metar Reports

Daily Weather History Graph

Daily Weather History Graph

Search for Another Location

Airport or City:

Trip Planner

Search our weather history database for the weather conditions in past years. The results will help you decide how hot, cold, wet, or windy it might be!

Date:

Astronomy

Dec. 14, 2012 Rise Set
Actual Time 7:19 AM CET 4:35 PM CET
Civil Twilight 6:48 AM CET 5:06 PM CET
Nautical Twilight 6:14 AM CET 5:41 PM CET
Astronomical Twilight 5:40 AM CET 6:14 PM CET
Moon 8:08 AM CET (12/14) 6:07 PM CET (12/14)
Length of Visible Light 10h 17m
Length of Day
9h 15m
New Moon, 2% of the Moon is Illuminated
Dec 14
New Moon
Dec 20
First Quarter
Dec 28
Full
Jan 5
Last Quarter
Jan 11
New

Hourly Weather History & Observations

Time (CET) Temp. Windchill Dew Point Humidity Pressure Visibility Wind Dir Wind Speed Gust Speed Precip Events Conditions
12:20 AM 48.2 °F - 33.8 °F 58% 30.15 in 5.0 mi North 4.6 mph - N/A   Mostly Cloudy
1:50 AM 46.4 °F 45.2 °F 39.2 °F 76% 30.15 in 5.0 mi NNW 3.5 mph - N/A Rain Light Rain
2:20 AM 46.4 °F - 41.0 °F 81% 30.15 in 5.0 mi NNW 2.3 mph - N/A Rain Light Rain
2:50 AM 46.4 °F 45.2 °F 41.0 °F 81% 30.15 in 5.0 mi NNE 3.5 mph - N/A Rain Light Rain
3:20 AM 46.4 °F 43.5 °F 39.2 °F 76% 30.12 in 5.0 mi NNW 5.8 mph - N/A   Mostly Cloudy
3:50 AM 44.6 °F 42.2 °F 39.2 °F 81% 30.12 in 5.0 mi NNW 4.6 mph - N/A   Mostly Cloudy
4:20 AM 44.6 °F 41.4 °F 39.2 °F 81% 30.12 in 5.0 mi NNW 5.8 mph - N/A   Mostly Cloudy
4:50 AM 46.4 °F 43.5 °F 39.2 °F 76% 30.12 in 5.0 mi NW 5.8 mph - N/A   Mostly Cloudy
5:20 AM 46.4 °F 45.2 °F 41.0 °F 81% 30.12 in 5.0 mi WNW 3.5 mph - N/A   Mostly Cloudy
5:50 AM 46.4 °F - 42.8 °F 87% 30.12 in 5.0 mi Variable 2.3 mph - N/A   Mostly Cloudy
6:20 AM 46.4 °F - 42.8 °F 87% 30.12 in 5.0 mi North 2.3 mph - N/A   Mostly Cloudy
6:50 AM - - - N/A% - 5.0 mi Variable 3.5 mph - N/A   Unknown
7:20 AM 48.2 °F - 44.6 °F 87% 30.12 in 5.0 mi North 3.5 mph - N/A   Mostly Cloudy
7:50 AM 48.2 °F - 46.4 °F 93% 30.12 in 6.2 mi North 3.5 mph - N/A   Mostly Cloudy
8:20 AM 48.2 °F - 46.4 °F 93% 30.12 in 6.2 mi NNW 3.5 mph - N/A Rain Light Rain
8:50 AM 50.0 °F - 46.4 °F 87% 30.12 in 6.2 mi NNW 3.5 mph - N/A   Scattered Clouds
9:20 AM 51.8 °F - 48.2 °F 88% 30.12 in 6.2 mi Variable 2.3 mph - N/A   Mostly Cloudy
9:50 AM 53.6 °F - 48.2 °F 82% 30.12 in 6.2 mi Variable 2.3 mph - N/A Rain Light Rain
10:20 AM 55.4 °F - 50.0 °F 82% 30.12 in 5.0 mi South 6.9 mph - N/A Rain Light Rain
10:50 AM 55.4 °F - 50.0 °F 82% 30.12 in 5.0 mi SSE 6.9 mph - N/A Rain Light Rain
11:20 AM 57.2 °F - 51.8 °F 82% 30.12 in 6.2 mi South 9.2 mph - N/A Rain Light Rain
11:50 AM 57.2 °F - 51.8 °F 82% 30.12 in 6.2 mi South 9.2 mph 20.7 mph N/A   Mostly Cloudy
12:20 PM 57.2 °F - 51.8 °F 82% 30.12 in 5.0 mi South 9.2 mph - N/A Rain Light Rain
12:50 PM 57.2 °F - 53.6 °F 88% 30.09 in 6.2 mi South 5.8 mph - N/A Rain Light Rain
1:20 PM 59.0 °F - 53.6 °F 82% 30.09 in 6.2 mi South 9.2 mph - N/A Rain Light Rain
1:50 PM 57.2 °F - 51.8 °F 82% 30.09 in 6.2 mi South 9.2 mph - N/A Rain Light Rain
2:20 PM 57.2 °F - 51.8 °F 82% 30.09 in 6.2 mi South 8.1 mph - N/A Rain Light Rain
2:50 PM 57.2 °F - 53.6 °F 88% 30.09 in 5.0 mi South 6.9 mph - N/A Rain Rain
3:20 PM 57.2 °F - 53.6 °F 88% 30.09 in 4.3 mi SW 4.6 mph - N/A Rain Rain
3:50 PM 57.2 °F - 51.8 °F 82% 30.09 in 4.3 mi Variable 2.3 mph - N/A Rain , Thunderstorm Thunderstorms and Rain
4:20 PM 55.4 °F - 51.8 °F 88% 30.12 in 3.7 mi West 9.2 mph - N/A Rain , Thunderstorm Light Thunderstorms and Rain
4:50 PM 53.6 °F - 53.6 °F 100% 30.12 in 3.1 mi North 4.6 mph - N/A Rain Rain
5:20 PM 53.6 °F - 53.6 °F 100% 30.12 in 3.1 mi ESE 4.6 mph - N/A Rain Rain
5:50 PM 53.6 °F - 51.8 °F 94% 30.12 in 3.7 mi East 4.6 mph - N/A   Mostly Cloudy
6:20 PM 53.6 °F - 53.6 °F 100% 30.12 in 5.0 mi Variable 2.3 mph - N/A   Mostly Cloudy
6:50 PM 55.4 °F - 55.4 °F 100% 30.12 in 5.0 mi SW 5.8 mph - N/A   Scattered Clouds
7:20 PM 57.2 °F - 55.4 °F 94% 30.12 in 5.0 mi WSW 4.6 mph - N/A   Mostly Cloudy
8:50 PM 57.2 °F - 53.6 °F 88% 30.12 in 5.0 mi South 3.5 mph - N/A   Mostly Cloudy
9:20 PM 57.2 °F - 53.6 °F 88% 30.15 in 5.0 mi SW 5.8 mph - N/A   Mostly Cloudy
9:50 PM 59.0 °F - 53.6 °F 82% 30.15 in 5.0 mi SW 4.6 mph - N/A   Mostly Cloudy
10:20 PM 59.0 °F - 55.4 °F 88% 30.15 in 5.0 mi SSW 5.8 mph - N/A Rain Light Rain
10:50 PM 59.0 °F - 55.4 °F 88% 30.15 in 5.0 mi SW 6.9 mph - N/A Rain Light Rain
11:20 PM 59.0 °F - 55.4 °F 88% 30.15 in 5.0 mi SSW 6.9 mph - N/A   Mostly Cloudy